Volver al catálogo

DELTA 1 DEB

ActivoSSO
NORAD 12255·DEBRIS·🇺🇸 United States

Lanzado Mar 5, 1978 desde Vandenberg Space Force Base

Loading…

Próximos Pases (próximas 24 horas)

TLE

ActualizadoSource: Space-Track

Época: Sep 13, 2026, 14:05 UTC

1 12255U 78026CY  26256.58730850 -.00000061  00000-0 -10923-4 0  9993
2 12255  98.9577 198.1815 0019706 135.6599 224.6149 14.02765135699484

Sigue DELTA 1 DEB en tiempo real con AllMySat

Download on the App Store